Weather observations for the past three days for
Harrisonville Lawrence Smith Memorial Airport
Imperial (Metric)
Date Time (cdt) Wind (mph) Vis. (mi.) Weather Sky Cond. Temperature (ºF) Relative Humidity Wind Chill (°F) Heat Index (°F) Pressure Precipitation (in)
Air Dwpt 6 hour altimeter (in) sea level (mb) 1 hr 3 hr 6 hr
Max. Min.
18 20:55 S 9 G 16 10.00 Fair CLR 82.4 68 62% 85 29.96 0.0
18 20:35 S 9 10.00 Partly Cloudy SCT050 84.2 68 58% 87 29.95 0.0
18 20:15 S 9 10.00 Partly Cloudy SCT055 86 68 55% 89 29.95 0.0
18 19:55 S 8 10.00 Mostly Cloudy BKN055 BKN070 86 68 55% 89 29.94 0.0
18 19:35 S 9 10.00 Mostly Cloudy SCT055 BKN070 BKN110 87.8 68 52% 91 29.93 0.0
18 19:15 S 8 G 23 10.00 Fair CLR 87.8 66.2 49% 90 29.9 0.0
18 18:55 S 10 G 18 10.00 Partly Cloudy SCT050 89.6 66.2 46% 92 29.89 0.0
18 18:35 S 10 G 18 10.00 Partly Cloudy SCT070 87.8 66.2 49% 90 29.89 0.0
18 18:15 S 13 G 22 10.00 Mostly Cloudy SCT055 BKN070 89.6 66.2 46% 92 29.88 0.0
18 17:55 S 12 G 16 10.00 Mostly Cloudy BKN080 87.8 66.2 49% 90 29.91 0.0
18 17:35 S 12 G 17 10.00 Overcast SCT060 SCT070 OVC080 87.8 66.2 49% 90 29.92 0.0
18 17:15 S 12 G 17 10.00 Overcast SCT060 BKN070 OVC080 87.8 64.4 46% 89 29.92 0.0
18 16:55 S 10 10.00 Overcast BKN060 OVC070 87.8 66.2 49% 90 29.93 0.0
18 16:35 SW 15 G 22 10.00 Overcast SCT055 OVC065 87.8 64.4 46% 89 29.93 0.0
18 16:15 SW 17 G 24 10.00 Overcast SCT050 OVC060 87.8 66.2 49% 90 29.93 0.0
18 15:55 SW 20 G 29 10.00 Overcast SCT048 OVC060 87.8 66.2 49% 90 29.92 0.0
18 15:35 SW 16 G 24 10.00 Overcast SCT050 OVC060 89.6 66.2 46% 92 29.92 0.0
18 15:15 SW 17 G 32 10.00 Overcast SCT050 OVC060 87.8 64.4 46% 89 29.91 0.0
18 14:55 SW 22 G 30 10.00 Overcast and Breezy OVC050 87.8 66.2 49% 90 29.92 0.0
18 14:35 S 17 G 26 10.00 Overcast OVC050 87.8 66.2 49% 90 29.92 0.0
18 14:15 SW 17 G 29 10.00 Overcast OVC050 89.6 66.2 46% 92 29.92 0.0
18 13:55 SW 14 G 26 10.00 Mostly Cloudy BKN048 87.8 66.2 49% 90 29.93 0.0
18 13:35 SW 20 G 29 10.00 Mostly Cloudy BKN048 89.6 64.4 43% 91 29.92 0.0
18 13:15 S 14 G 23 10.00 Mostly Cloudy BKN044 BKN050 87.8 66.2 49% 90 29.92 0.0
18 12:55 SW 18 G 24 10.00 Mostly Cloudy BKN042 87.8 66.2 49% 90 29.92 0.0
18 12:35 S 18 G 28 10.00 Fair CLR 87.8 66.2 49% 90 29.92 0.0
18 12:15 S 20 G 30 10.00 Fair CLR 87.8 64.4 46% 89 29.91 0.0
18 11:55 S 17 G 24 10.00 Partly Cloudy SCT038 86 66.2 52% 88 29.91 0.0
18 11:35 S 18 G 29 10.00 Partly Cloudy SCT038 86 66.2 52% 88 29.91 0.0
18 11:15 S 15 G 25 10.00 Partly Cloudy SCT036 86 66.2 52% 88 29.9 0.0
18 10:55 S 16 G 25 10.00 Partly Cloudy SCT034 86 66.2 52% 88 29.91 0.0
18 10:35 S 15 G 24 10.00 Partly Cloudy SCT034 84.2 68 58% 87 29.91 0.0
18 10:15 S 17 G 29 10.00 Partly Cloudy SCT031 82.4 68 62% 85 29.91 0.0
18 09:55 S 15 G 25 10.00 Mostly Cloudy BKN029 BKN037 82.4 68 62% 85 29.91 0.0
18 09:35 S 20 G 25 10.00 Overcast OVC027 80.6 68 66% 83 29.92 0.0
18 09:15 S 14 G 22 10.00 Overcast OVC025 80.6 68 66% 83 29.91 0.0
18 08:55 S 12 G 24 10.00 Overcast OVC023 80.6 69.8 70% 84 29.91 0.0
18 08:35 S 14 G 24 10.00 Overcast OVC023 78.8 68 70% 81 29.9 0.0
18 08:15 S 14 G 20 10.00 Overcast OVC023 78.8 69.8 74% 81 29.89 0.0
18 07:55 S 9 G 18 10.00 Overcast OVC023 77 69.8 79% 79 29.89 0.0
18 07:35 S 13 G 21 10.00 Overcast OVC025 77 69.8 79% 79 29.88 0.0
18 07:15 S 10 G 18 10.00 Overcast OVC027 77 69.8 79% 79 29.88 0.0
18 06:55 S 12 G 18 10.00 Overcast OVC029 77 69.8 79% 79 29.87 0.0
18 06:35 S 10 G 17 10.00 Overcast OVC029 77 69.8 79% 79 29.86 0.0
18 06:15 S 9 G 18 10.00 Mostly Cloudy BKN029 75.2 69.8 83% 75 29.86 0.0
18 05:55 S 9 G 17 10.00 Partly Cloudy SCT029 75.2 69.8 83% 75 29.86 0.0
18 05:35 S 9 G 16 10.00 Partly Cloudy SCT031 75.2 68 78% 76 29.86 0.0
18 05:15 S 9 10.00 Partly Cloudy SCT031 75.2 69.8 83% 75 29.85 0.0
18 04:55 S 10 G 16 10.00 Fair CLR 77 69.8 79% 79 29.84 0.0
18 04:35 S 9 10.00 Fair CLR 77 69.8 79% 79 29.84 0.0
18 04:15 S 9 G 20 10.00 Fair CLR 77 69.8 79% 79 29.83 0.0
18 03:55 S 10 G 20 10.00 Fair CLR 77 69.8 79% 79 29.83 0.0
18 03:35 S 10 10.00 Fair CLR 77 69.8 79% 79 29.83 0.0
18 03:15 S 9 G 17 10.00 Fair CLR 77 69.8 79% 79 29.83 0.0
18 02:55 S 10 G 18 10.00 Fair CLR 78.8 69.8 74% 81 29.83 0.0
18 02:35 S 10 G 18 10.00 Fair CLR 78.8 69.8 74% 81 29.83 0.0
18 02:15 S 10 G 23 10.00 Fair CLR 78.8 69.8 74% 81 29.84 0.0
18 01:55 S 9 G 17 10.00 Fair CLR 78.8 69.8 74% 81 29.84 0.0
18 01:35 S 13 G 20 10.00 Fair CLR 78.8 69.8 74% 81 29.84 0.0
18 01:15 S 12 G 17 10.00 Fair CLR 78.8 69.8 74% 81 29.85 0.0
18 00:55 S 10 G 17 10.00 Fair CLR 78.8 69.8 74% 81 29.85 0.0
18 00:35 S 10 G 16 10.00 Fair CLR 80.6 69.8 70% 84 29.85 0.0
18 00:15 S 10 G 18 10.00 Fair CLR 80.6 69.8 70% 84 29.85 0.0
17 23:55 S 10 G 17 10.00 Fair CLR 80.6 69.8 70% 84 29.85 0.0
17 23:35 S 9 10.00 Fair CLR 80.6 69.8 70% 84 29.85 0.0
17 23:15 S 9 10.00 Fair CLR 80.6 68 66% 83 29.85 0.0
17 22:55 S 9 10.00 Fair CLR 80.6 68 66% 83 29.84 0.0
17 22:35 S 10 10.00 Fair CLR 80.6 68 66% 83 29.84 0.0
17 22:15 S 9 10.00 Fair CLR 80.6 68 66% 83 29.84 0.0
17 21:55 S 7 10.00 Fair CLR 80.6 68 66% 83 29.84 0.0
17 21:35 S 7 10.00 Fair CLR 80.6 68 66% 83 29.83 0.0
17 21:15 S 6 10.00 Fair CLR 82.4 68 62% 85 29.82 0.0
17 20:55 S 7 10.00 Fair CLR 84.2 68 58% 87 29.82 0.0
17 20:35 S 8 10.00 Fair CLR 86 68 55% 89 29.81 0.0
17 20:15 S 6 10.00 Fair CLR 86 68 55% 89 29.81 0.0
17 19:55 S 7 G 16 10.00 Fair CLR 87.8 68 52% 91 29.81 0.0
17 19:35 S 6 10.00 Fair CLR 87.8 68 52% 91 29.81 0.0
17 19:15 S 9 G 18 10.00 Fair CLR 89.6 68 49% 93 29.81 0.0
17 18:55 S 9 10.00 Fair CLR 89.6 66.2 46% 92 29.81 0.0
17 18:35 S 9 G 24 10.00 Fair CLR 89.6 64.4 43% 91 29.81 0.0
17 18:15 S 10 G 23 10.00 Fair CLR 89.6 64.4 43% 91 29.81 0.0
17 17:55 S 10 G 21 10.00 Partly Cloudy SCT050 SCT065 89.6 68 49% 93 29.81 0.0
17 17:35 S 12 G 22 10.00 Mostly Cloudy BKN050 BKN065 89.6 68 49% 93 29.82 0.0
17 17:15 S 12 G 22 10.00 Fair CLR 91.4 64.4 41% 93 29.81 0.0
17 16:55 S 15 G 22 10.00 Fair CLR 91.4 64.4 41% 93 29.82 0.0
17 16:35 S 12 G 18 10.00 Fair CLR 91.4 64.4 41% 93 29.83 0.0
17 16:15 S 15 G 20 10.00 Partly Cloudy SCT060 SCT070 SCT080 91.4 66.2 44% 94 29.83 0.0
17 15:55 S 9 G 18 10.00 Partly Cloudy SCT050 SCT070 SCT080 91.4 66.2 44% 94 29.84 0.0
17 15:35 SW 14 G 21 10.00 Partly Cloudy SCT050 SCT070 93.2 66.2 41% 96 29.84 0.0
17 15:15 S 14 G 18 10.00 Partly Cloudy SCT050 91.4 64.4 41% 93 29.85 0.0
17 14:55 S 12 G 16 10.00 Partly Cloudy SCT050 SCT065 93.2 64.4 39% 95 29.85 0.0
17 14:35 S 12 10.00 Partly Cloudy SCT050 SCT070 91.4 64.4 41% 93 29.86 0.0
17 14:15 S 15 G 18 10.00 Partly Cloudy SCT050 SCT070 91.4 64.4 41% 93 29.86 0.0
17 13:55 S 13 G 18 10.00 Partly Cloudy SCT050 SCT060 91.4 68 46% 96 29.87 0.0
17 13:35 SW 12 G 18 10.00 Partly Cloudy SCT048 SCT060 89.6 68 49% 93 29.88 0.0
17 13:15 SW 12 G 17 10.00 Partly Cloudy SCT046 89.6 68 49% 93 29.88 0.0
17 12:55 S 10 10.00 Partly Cloudy SCT042 SCT050 SCT075 89.6 69.8 52% 95 29.89 0.0
17 12:35 SW 9 10.00 Partly Cloudy SCT042 SCT050 SCT055 87.8 69.8 55% 93 29.9 0.0
17 12:15 SW 14 G 18 10.00 Mostly Cloudy SCT040 BKN050 BKN055 89.6 68 49% 93 29.9 0.0
17 11:55 SW 13 G 22 10.00 Mostly Cloudy SCT038 BKN046 BKN055 87.8 69.8 55% 93 29.9 0.0
17 11:35 SW 18 G 23 10.00 Mostly Cloudy BKN038 BKN055 87.8 69.8 55% 93 29.9 0.0
17 11:15 SW 12 G 22 10.00 Mostly Cloudy BKN038 BKN055 87.8 69.8 55% 93 29.91 0.0
17 10:55 SW 15 G 21 10.00 Partly Cloudy SCT036 87.8 69.8 55% 93 29.91 0.0
17 10:35 SW 14 G 21 10.00 Partly Cloudy SCT034 86 69.8 59% 91 29.91 0.0
17 10:15 SW 12 G 17 10.00 Fair CLR 86 69.8 59% 91 29.91 0.0
17 09:55 S 13 G 18 10.00 Fair CLR 84.2 69.8 62% 88 29.92 0.0
17 09:35 SW 9 G 20 10.00 Fair CLR 82.4 69.8 66% 86 29.92 0.0
17 09:15 S 9 G 17 10.00 Fair CLR 82.4 69.8 66% 86 29.93 0.0
17 08:55 S 10 10.00 Fair CLR 80.6 69.8 70% 84 29.93 0.0
17 08:35 S 12 G 16 10.00 Fair CLR 80.6 69.8 70% 84 29.93 0.0
17 08:15 S 8 10.00 Fair CLR 78.8 68 70% 81 29.92 0.0
17 07:55 S 7 10.00 Fair CLR 78.8 69.8 74% 81 29.92 0.0
17 07:35 S 7 10.00 Fair CLR 77 68 74% 79 29.91 0.0
17 07:15 S 6 10.00 Fair CLR 77 68 74% 79 29.91 0.0
17 06:55 S 3 10.00 Fair CLR 75.2 68 78% 76 29.9 0.0
17 06:35 S 5 10.00 Fair CLR 73.4 68 83% 29.89 0.0
17 06:15 S 3 10.00 Fair CLR 73.4 68 83% 29.88 0.0
17 05:55 S 5 10.00 Fair CLR 73.4 68 83% 29.87 0.0
17 05:35 S 6 10.00 Fair CLR 75.2 68 78% 76 29.86 0.0
17 05:15 S 5 10.00 Fair CLR 75.2 68 78% 76 29.86 0.0
17 04:55 S 5 10.00 Fair CLR 75.2 68 78% 76 29.86 0.0
17 04:35 S 5 10.00 Fair CLR 75.2 68 78% 76 29.85 0.0
17 04:15 S 7 10.00 Fair CLR 75.2 68 78% 76 29.85 0.0
17 03:55 S 7 10.00 Fair CLR 75.2 68 78% 76 29.85 0.0
17 03:35 S 5 10.00 Fair CLR 75.2 68 78% 76 29.85 0.0
17 03:15 S 6 10.00 Fair CLR 77 68 74% 79 29.86 0.0
17 02:55 S 5 10.00 Fair CLR 77 68 74% 79 29.86 0.0
17 02:35 S 6 10.00 Fair CLR 75.2 66.2 74% 77 29.86 0.0
17 02:15 S 6 10.00 Fair CLR 75.2 66.2 74% 77 29.87 0.0
17 01:55 S 3 10.00 Fair CLR 75.2 66.2 74% 77 29.87 0.0
17 01:35 S 5 10.00 Fair CLR 75.2 66.2 74% 77 29.88 0.0
17 01:15 S 5 10.00 Fair CLR 75.2 66.2 74% 77 29.88 0.0
17 00:55 S 5 10.00 Fair CLR 77 66.2 69% 79 29.88 0.0
17 00:35 S 5 10.00 Fair CLR 77 66.2 69% 79 29.89 0.0
17 00:15 S 5 10.00 Fair CLR 77 68 74% 79 29.9 0.0
16 23:55 S 5 10.00 Fair CLR 77 68 74% 79 29.9 0.0
16 23:35 S 3 10.00 Fair CLR 77 68 74% 79 29.9 0.0
16 23:15 S 3 10.00 Fair CLR 78.8 68 70% 81 29.9 0.0
16 22:55 S 5 10.00 Fair CLR 78.8 68 70% 81 29.89 0.0
16 22:35 S 3 10.00 Fair CLR 78.8 68 70% 81 29.89 0.0
16 22:15 S 5 10.00 Fair CLR 80.6 66.2 62% 83 29.88 0.0
16 21:55 S 6 10.00 Fair CLR 82.4 68 62% 85 29.88 0.0
16 21:35 S 5 10.00 Fair CLR 82.4 68 62% 85 29.87 0.0
16 21:15 S 3 10.00 Fair CLR 82.4 68 62% 85 29.86 0.0
16 20:55 S 3 10.00 Fair CLR 84.2 68 58% 87 29.85 0.0
16 20:35 S 5 10.00 Fair CLR 86 68 55% 89 29.85 0.0
16 20:15 S 7 10.00 Fair CLR 86 68 55% 89 29.85 0.0
16 19:55 S 8 10.00 Fair CLR 87.8 68 52% 91 29.84 0.0
16 19:35 S 8 10.00 Fair CLR 87.8 68 52% 91 29.84 0.0
16 19:15 S 8 G 16 10.00 Fair CLR 89.6 68 49% 93 29.83 0.0
16 18:55 S 10 G 17 10.00 Partly Cloudy SCT049 89.6 68 49% 93 29.83 0.0
16 18:35 S 9 10.00 Partly Cloudy SCT047 89.6 69.8 52% 95 29.83 0.0
16 18:15 S 12 G 18 10.00 Fair CLR 89.6 68 49% 93 29.83 0.0
16 17:55 S 13 G 18 10.00 Partly Cloudy SCT049 91.4 68 46% 96 29.83 0.0
16 17:35 S 10 G 16 10.00 Fair CLR 91.4 68 46% 96 29.83 0.0
16 17:15 SW 14 G 21 10.00 Fair CLR 91.4 68 46% 96 29.83 0.0
16 16:55 SW 10 G 21 10.00 Fair CLR 91.4 68 46% 96 29.83 0.0
16 16:35 SW 14 G 20 10.00 Partly Cloudy SCT050 91.4 68 46% 96 29.83 0.0
16 16:15 S 14 G 23 10.00 Partly Cloudy SCT048 SCT055 91.4 68 46% 96 29.83 0.0
16 15:55 SW 16 G 22 10.00 Partly Cloudy SCT048 91.4 68 46% 96 29.83 0.0
16 15:35 S 14 G 23 10.00 Partly Cloudy BKN048 SCT055 91.4 68 46% 96 29.83 0.0
16 15:15 SW 16 G 22 10.00 Mostly Cloudy BKN046 89.6 68 49% 93 29.84 0.0
16 14:55 SW 13 G 22 10.00 Partly Cloudy SCT046 91.4 69.8 49% 97 29.84 0.0
16 14:35 SW 13 G 22 10.00 Partly Cloudy SCT046 SCT050 91.4 68 46% 96 29.85 0.0
16 14:15 S 13 G 21 10.00 Partly Cloudy SCT046 SCT049 89.6 69.8 52% 95 29.86 0.0
16 13:55 SW 15 G 26 10.00 Partly Cloudy SCT042 89.6 69.8 52% 95 29.86 0.0
16 13:35 SW 10 G 17 10.00 Fair CLR 89.6 69.8 52% 95 29.86 0.0
16 13:15 SW 13 G 18 10.00 Fair CLR 87.8 69.8 55% 93 29.86 0.0
16 12:55 SW 15 G 25 10.00 Fair CLR 87.8 68 52% 91 29.86 0.0
16 12:35 SW 15 G 25 10.00 Fair CLR 87.8 69.8 55% 93 29.86 0.0
16 12:15 SW 16 G 25 10.00 Fair CLR 86 68 55% 89 29.85 0.0
16 11:55 SW 15 G 22 10.00 Fair CLR 84.2 69.8 62% 88 29.86 0.0
16 11:35 SW 16 G 24 10.00 Fair CLR 84.2 68 58% 87 29.86 0.0
16 11:15 SW 17 G 23 10.00 Fair CLR 82.4 69.8 66% 86 29.87 0.0
16 10:55 SW 16 G 24 10.00 Fair CLR 82.4 69.8 66% 86 29.88 0.0
16 10:35 SW 14 G 23 10.00 Fair CLR 82.4 69.8 66% 86 29.89 0.0
16 10:15 SW 15 G 22 10.00 Fair CLR 82.4 69.8 66% 86 29.9 0.0
16 09:55 SW 17 G 23 10.00 Fair CLR 82.4 69.8 66% 86 29.9 0.0
16 09:35 SW 13 G 23 10.00 Fair CLR 82.4 69.8 66% 86 29.91 0.0
16 09:15 SW 18 G 22 10.00 Fair CLR 80.6 69.8 70% 84 29.91 0.0
16 08:55 SW 12 G 18 10.00 Fair CLR 80.6 69.8 70% 84 29.92 0.0
16 08:35 SW 15 10.00 Fair CLR 80.6 69.8 70% 84 29.91 0.0
16 08:15 SW 8 10.00 Fair CLR 78.8 69.8 74% 81 29.91 0.0
16 07:55 SW 8 10.00 Fair CLR 78.8 69.8 74% 81 29.91 0.0
16 07:35 S 6 10.00 Fair CLR 77 69.8 79% 79 29.92 0.0
16 07:15 SW 5 10.00 Fair CLR 77 69.8 79% 79 29.92 0.0
16 06:55 SW 3 10.00 Fair CLR 77 69.8 79% 79 29.91 0.0
16 06:35 Calm 10.00 Fair CLR 75.2 69.8 83% 75 29.9 0.0
16 06:15 Calm 10.00 Partly Cloudy SCT055 75.2 69.8 83% 75 29.9 0.0
16 05:55 Calm 10.00 Mostly Cloudy BKN055 75.2 69.8 83% 75 29.9 0.0
16 05:35 Calm 10.00 Light Rain BKN055 75.2 69.8 83% 75 29.9 0.0
16 05:15 W 3 10.00 Partly Cloudy SCT055 77 69.8 79% 79 29.9 0.0
16 04:55 Calm 10.00 Fair CLR 77 69.8 79% 79 29.89 0.0
16 04:35 SW 3 10.00 Fair CLR 77 69.8 79% 79 29.87 0.0
16 04:15 SW 5 10.00 Fair CLR 77 69.8 79% 79 29.86 0.0
16 03:55 S 5 10.00 Fair CLR 77 69.8 79% 79 29.85 0.0
16 03:35 S 5 10.00 Fair CLR 77 69.8 79% 79 29.85 0.0
16 03:15 SW 3 10.00 Fair CLR 77 69.8 79% 79 29.86 0.0
16 02:55 S 3 10.00 Fair CLR 78.8 69.8 74% 81 29.86 0.0
16 02:35 S 6 10.00 Fair CLR 78.8 69.8 74% 81 29.86 0.0
16 02:15 S 7 10.00 Fair CLR 78.8 69.8 74% 81 29.86 0.0
16 01:55 S 7 10.00 Fair CLR 78.8 69.8 74% 81 29.85 0.0
16 01:35 S 7 10.00 Fair CLR 78.8 69.8 74% 81 29.86 0.0
16 01:15 S 6 10.00 Fair CLR 78.8 69.8 74% 81 29.86 0.0
16 00:55 S 8 10.00 Fair CLR 80.6 71.6 74% 85 29.87 0.0
16 00:35 S 8 10.00 Fair CLR 80.6 71.6 74% 85 29.87 0.0
16 00:15 S 9 10.00 Fair CLR 80.6 71.6 74% 85 29.87 0.0
15 23:55 S 8 10.00 Fair CLR 80.6 71.6 74% 85 29.87 0.0
15 23:35 S 8 10.00 Fair CLR 80.6 71.6 74% 85 29.87 0.0
15 23:15 S 8 10.00 Fair CLR 80.6 71.6 74% 85 29.87 0.0
15 22:55 SE 6 10.00 Fair CLR 78.8 71.6 79% 82 29.87 0.0
15 22:35 S 6 10.00 Fair CLR 78.8 71.6 79% 82 29.87 0.0
15 22:15 S 5 10.00 Fair CLR 80.6 69.8 70% 84 29.87 0.0
15 21:55 S 5 10.00 Partly Cloudy SCT050 78.8 69.8 74% 81 29.87 0.0
15 21:35 S 3 10.00 Fair CLR 80.6 69.8 70% 84 29.86 0.0
15 21:15 S 7 10.00 Fair CLR 82.4 69.8 66% 86 29.86 0.0
Date Time (cdt) Wind (mph) Vis. (mi.) Weather Sky Cond. Air Dwpt Max. Min. Relative Humidity Wind Chill (°F) Heat Index (°F) altimeter (in) sea level (mb) 1 hr 3 hr 6 hr
6 hour
Temperature (ºF) Pressure Precipitation (in)